Погода в Девятерне

Россия / Республика Татарстан     56°12′03″N   53°23′42″E
темп.,
°C
ветер,
м/с
пор.,
м/с
влажн.,
%
обл.,
%
осадки,
мм/ч
давл.,
гПа
погр.,
м
2 декабря, чт
чт200:000зсз589599 0.1 991458
03:00−2з599256 0.3 993381
06:00−3зюз5119015 0.0 996427
09:00−4зюз6129146 0.0 998540
12:00−3юз6118782 0.0 1000758
15:00−3юз61188100 0.0 1001692
18:00−3юз6119090 0.1 1002662
21:00−4зюз6118863 0.1 1004528
3 декабря, пт
пт300:00−5зюз61288100 0.0 1005591
03:00−4зюз71286100 0.0 1006759
06:00−5юз6128599 0.0 1006590
09:00−4юз61290100 0.0 1008661
12:00−3юз61294100 0.3 1007704
15:00−2юз61395100 0.6 1009570
18:00−1юз51297100 0.1 1011620
21:00+1юз61198100 0.6 1012629
4 декабря, сб
сб400:00+1юз51098100 0.1 1014572
03:00+1ююз51098100 0.1 1014382
06:00+1ю71598100 0.7 1012549
09:00+2ююз8189897 0.7 1011584
12:00+2ююз92081100 0.0 1009724
15:00+2ююз101991100 0.1 1009857
18:00+1ююз81798100 1.8 1008927
21:00+1юз61398100 4.5 1009681
5 декабря, вс
вс500:000зюз4898100 0.6 1010543
03:00−1юз4794100 0.7 1010329
06:00−2зюз379516 0.0 1010242
09:00−3з489339 0.0 1012446
12:00−3з588498 0.1 1014809
15:00−3з5883100 0.1 1015886
18:00−3зюз5985100 0.1 1016600
21:00−4зсз4794100 0.2 1018539
6 декабря, пн
пн600:00−8сз578799 0.1 1020554
03:00−10сз478478 0.1 1023605
06:00−11сз468290 0.0 1024594
09:00−13ссз468174 0.0 1027540
12:00−13ссз467993 0.0 1029550
15:00−13ссз358338 0.0 1030478
18:00−13с358715 0.0 1032382
21:00−14ссв24885 0.0 1034269